Погода Грозный

Поиск расширенной информации на нашем сайте:

Полезная информация:

Новости сайта



02.01.2020
Опубликован Долгосрочный прогноз погоды по городам России и ближнего зарубежья на январь 2020 года.
Карты: Прогноз на январь и февраль 2020 года, Сравнение прогнозируемой аномалии приземной температуры воздуха на январь 2020 года по разным моделям.




Погода Грозный - сегодня

Время (UTC), дата Ветер
(°,м/с) 
Видим.   Явления Облачность Т
(°С)
Тd
(°С)
f(%) Тe
(°С)
Pmin
(гПа)
dP
(гПа)
Po
(мм)
O2
(г/м3)
Тmin Tmax R s Состояние
почвы
15 18.10.20 100 (В) 20000 м    3/0 средняя 
[Ac lent]
+22 +15.4 66 +32  1009.7  0.2  735  271    +26.7       
18 18.10.20 110 (В) 10 км    ясно 
+11.7 +10 89 +14  1015.7  0.4  739  284           
21 18.10.20 100 (В) 10 км    ясно 
+10.1 +9.3 95 +12  1015.4  -0.5  738  285           
00 19.10.20 110 (В) 10 км    ясно 
+9.4 +8.6 95 +9  1016  0.6  739  286           
03 19.10.20 320 (СЗ) 20000 м    ясно 
+8 +6.9 93 +9  1017.8  1.5  740  288  +7.7        сухая 
06 19.10.20 тихо ()   20000 м    ясно 
+16.6 +8.5 59 +17  1017.1  0.2  740  280  +7.3         
09 19.10.20 280 (З) 20000 м    ясно 
+22.4 +8.9 42 +22  1014.3  -2  738  273           
12 19.10.20 050 (СВ) 20000 м    ясно 
+24.1 +9.8 40 +25  1012.9  -1.2  738  271           
15 19.10.20 тихо ()   10 км    3/0 средняя 
[Ac lent]
+16.3 +10.1 67 +18  1014  0.2  738  279    +24.8       
18 19.10.20 тихо ()   10 км    ясно 
+13 +9.2 78 +13  1014.8  0.5  738  282           
21 19.10.20 270 (З) 10 км    4/0 средняя 
[Ac lent]
+15.4 +9.3 67 +17  1017.8  3.1  740  281           
00 20.10.20 290 (З) 10 км    9/9 600 м 
[Frnb]
+16.2 +11.6 74 +20  1020.9  3.2  743  280           
03 20.10.20 290 (З) 10 км    10/10 600 м 
[Frnb]
+14.8 +8.8 67 +15  1023.7  2.5  745  283  +12.9        сухая 
06 20.10.20 290 (З) 20000 м    10/10 600 м 
[Frnb]
+14.3 +8.5 68 +14  1025.4  1.6  746  284           
09 20.10.20 290 (З) 20000 м    9/9 1000 м 
[Sc]
+15.4 +8 61 +16  1024.4  -0.9  745  283           
12 20.10.20 320 (СЗ) 20000 м    10/10 1000 м 
[Sc]
+15 +7.9 62 +16  1024  -0.4  745  283           
15 20.10.20 100 (В) 10 км    10/10 600 м 
[Sc]
+13.6 +7.4 66 +15  1024.7  0.5  745  285    +15.9       
18 20.10.20 тихо ()   10 км    10/5 600 м средняя 
[Sc|Ac As]
+12.4 +7.5 72 +12  1025  0.2  745  286           
21 20.10.20 тихо ()   10 км    10/5 600 м средняя 
[Sc|Ac As]
+11.9 +7.9 76 +12  1025.7  0.6  746  287           
00 21.10.20 тихо ()   10 км    9/9 600 м 
[Sc]
+11.5 +8.4 81 +12  1026.2  0.5  746  287           
03 21.10.20 290 (З) 10 км    9/9 600 м 
[Sc]
+11.2 +7.4 77 +12  1027.5  1.2  747  288  +11.1        сухая 
06 21.10.20 тихо ()   4000 м  слаб. морось  10/10 300 м 
[St]
+9.9 +7.4 84 +10  1030.8  749  290  +9.8         
09 21.10.20 300 (СЗ) 20000 м  {морось}  10/10 1000 м 
[Sc]
+12.5 +5.4 62 +14  1029.1  -1.3  748  288           
12 21.10.20 190 (Ю) 20000 м  {морось}  8/8 1000 м 
[Sc]
+14.5 +6.1 57 +15  1028.3  -0.6  748  285           
15 21.10.20 120 (ЮВ) 10 км    ясно 
+10.1 +7.1 82 +11  1028.8  -0.1  748  289    +15.1  0.4     
Время (UTC), дата Ветер
(°,м/с) 
Видим.   Явления Облачность Т
(°С)
Тd
(°С)
f(%) Тe
(°С)
Pmin
(гПа)
dP
(гПа)
Po
(мм)
O2
(г/м3)
Тmin Tmax R s Состояние
почвы

Для получения пояснительной информации подведите курсор к названию столбца.

ПОГОДА Грозный - архив

Всё, что Вы хотите узнать о погоде Грозный - удобно и подробно!

Выберите нужную дату (начиная с 1 января 2019* года) и нажмите кнопку "Найти".
Будут отображены архивные сводки погоды по пункту Грозный, начиная с указанной даты.


Отображать данные в формате CSV (для использования в таблицах Excel)


Внимание! Наш архив погоды предназначен исключительно для личного некоммерческого использования в познавательных целях. Если Вам необходимы официальные справки о состоянии погоды (для производственных, юридических, коммерческих и т.п. целей), обращайтесь в органы Росгидромета.

*Примечание: данная дата относится к архиву по метеостанциям СССР (Россия, СНГ, Балтия).
Архив по метеостанциям Зарубежной Европы и Азии (кроме Китая) хранится 10 дней, по другим регионам земного шара (Китай, Африка, Америка, Австралия, Океания) - 1 день.

Грозный - район местоположения метеостанции


Название, широта, долгота, высота метеостанции:
Грозный 43.3°ш. 45.7°д. 163 м над ур. моря [Российская Федерация]

Дополнительная информация

В oтличие oт бoльшинства пoгoдных сайтoв мы публикуем пoдрoбную метеoинфoрмацию в детальнoм прoфессиoнальнoм фoрмате.

Характеристики температуры и влажнoсти вoздуха измеряются на высoте 2 м в тени вдали oт зданий и деревьев.
Скoрoсть ветра измеряется на высoте 10 м (на урoвне рoста челoвека скoрoсть ветра ниже в 1.5-2 раза). Если метеoстанция нахoдится в гoрoде или в лесу, тo скoрoсть ветра занижена на 2-4 м/с пo сравнению с oткрытым местoм. Скoрoсть ветра над акватoриями крупных рек и oзёр, а также на вершинах хoлмoв на 2-5 м/с выше, чем в oбычных услoвиях.
Атмoсфернoе давление в разных тoчках местнoсти мoжет значительнo oтличаться oт давления на метеoстанции, в зависимoсти oт услoвий рельефа (при пoдъёме на 10 м давление пoнижается примернo на 1 мм рт.ст.).